When you browse on this site, cookies collect data to enhance your experience and personalize the content and advertising you see.
Visit our Privacy Policy to learn more. By continuing to use the site, you agree to this use of cookies and data.
  • In Österreich
  • Länderverzeichnis
  • Für 7 Tage
  • Wassertemperatur
  • Satellitenkarten
  • Wetterkarte
  • News
  • Widgets
  • user-avatar
    Anmelden

    Stündliche Wetter Chinsali

    Heute, 17 Dezember, Montag

    Zeit Temperatur Niederschläge Wind Luftdruck Luftfeuchtigkeit
    00:00 +20°C° 1.2 mm 1 m/S 647 mmHg 91%
    01:00 +20°C° 1.2 mm 1 m/S 647 mmHg 93%
    02:00 +20°C° 1.2 mm 1 m/S 647 mmHg 94%
    03:00 +20°C° 1.3 mm 1 m/S 647 mmHg 94%
    04:00 +20°C° 1.3 mm 1 m/S 647 mmHg 93%
    05:00 +20°C° 1.3 mm 1 m/S 647 mmHg 93%
    06:00 +20°C° 0.8 mm 1 m/S 647 mmHg 90%
    07:00 +21°C° 0.8 mm 1 m/S 648 mmHg 88%
    08:00 +22°C° 0.8 mm 1 m/S 648 mmHg 86%
    09:00 +23°C° 1.6 mm 1 m/S 648 mmHg 82%
    10:00 +24°C° 1.6 mm 1 m/S 648 mmHg 78%
    11:00 +26°C° 1.6 mm 1 m/S 648 mmHg 75%
    12:00 +26°C° 1.2 mm 1 m/S 648 mmHg 72%
    13:00 +27°C° 1.2 mm 1 m/S 647 mmHg 69%
    14:00 +26°C° 1.2 mm 0 m/S 647 mmHg 67%
    15:00 +27°C° 0.9 mm 1 m/S 647 mmHg 72%
    16:00 +26°C° 0.9 mm 1 m/S 646 mmHg 76%
    17:00 +25°C° 0.9 mm 1 m/S 646 mmHg 81%
    18:00 +24°C° 1 mm 1 m/S 646 mmHg 83%
    19:00 +22°C° 1 mm 1 m/S 646 mmHg 85%
    20:00 +19°C° 1 mm 0 m/S 646 mmHg 87%
    21:00 +21°C° 0.8 mm 1 m/S 646 mmHg 88%
    22:00 +21°C° 0.8 mm 1 m/S 647 mmHg 89%
    23:00 +21°C° 0.8 mm 1 m/S 647 mmHg 90%

    Morgen, 18 Dezember, Dienstag

    Zeit Temperatur Niederschläge Wind Luftdruck Luftfeuchtigkeit
    00:00 +20°C° 1.1 mm 1 m/S 647 mmHg 91%
    01:00 +20°C° 1.1 mm 1 m/S 646 mmHg 93%
    02:00 +20°C° 1.1 mm 1 m/S 646 mmHg 94%
    03:00 +20°C° 0.8 mm 1 m/S 646 mmHg 95%
    04:00 +20°C° 0.8 mm 1 m/S 646 mmHg 95%
    05:00 +19°C° 0.8 mm 1 m/S 646 mmHg 96%
    06:00 +20°C° 0.5 mm 1 m/S 647 mmHg 93%
    07:00 +21°C° 0.5 mm 1 m/S 647 mmHg 90%
    08:00 +22°C° 0.5 mm 1 m/S 648 mmHg 88%
    09:00 +23°C° 0.6 mm 1 m/S 648 mmHg 83%
    10:00 +24°C° 0.6 mm 1 m/S 648 mmHg 77%
    11:00 +25°C° 0.6 mm 1 m/S 648 mmHg 72%
    12:00 +26°C° 0.3 mm 1 m/S 647 mmHg 70%
    13:00 +26°C° 0.3 mm 1 m/S 647 mmHg 67%
    14:00 +27°C° 0.3 mm 1 m/S 646 mmHg 65%
    15:00 +26°C° 0.6 mm 1 m/S 646 mmHg 70%
    16:00 +25°C° 0.6 mm 1 m/S 645 mmHg 75%
    17:00 +25°C° 0.6 mm 1 m/S 645 mmHg 80%
    18:00 +23°C° 1 mm 1 m/S 645 mmHg 84%
    19:00 +22°C° 1 mm 1 m/S 646 mmHg 88%
    20:00 +21°C° 1 mm 1 m/S 646 mmHg 92%
    21:00 +21°C° 1.1 mm 1 m/S 646 mmHg 93%
    22:00 +21°C° 1.1 mm 1 m/S 646 mmHg 93%
    23:00 +20°C° 1.1 mm 1 m/S 647 mmHg 93%

    übermorgen, 19 Dezember, Mittwoch

    Zeit Temperatur Niederschläge Wind Luftdruck Luftfeuchtigkeit
    00:00 +20°C° 1.3 mm 1 m/S 646 mmHg 94%
    01:00 +20°C° 1.3 mm 1 m/S 646 mmHg 95%
    02:00 +20°C° 1.3 mm 1 m/S 645 mmHg 95%
    03:00 +20°C° 0.9 mm 1 m/S 645 mmHg 96%
    04:00 +19°C° 0.9 mm 1 m/S 645 mmHg 96%
    05:00 +19°C° 0.9 mm 1 m/S 645 mmHg 96%
    06:00 +20°C° 0.5 mm 1 m/S 646 mmHg 94%
    07:00 +20°C° 0.5 mm 1 m/S 647 mmHg 92%
    08:00 +21°C° 0.5 mm 1 m/S 647 mmHg 91%
    09:00 +22°C° 0.8 mm 1 m/S 647 mmHg 87%
    10:00 +23°C° 0.8 mm 1 m/S 647 mmHg 84%
    11:00 +24°C° 0.8 mm 2 m/S 647 mmHg 81%
    12:00 +24°C° 1.5 mm 2 m/S 647 mmHg 82%
    13:00 +24°C° 1.5 mm 2 m/S 646 mmHg 83%
    14:00 +24°C° 1.5 mm 1 m/S 645 mmHg 84%
    15:00 +24°C° 1.4 mm 1 m/S 645 mmHg 85%
    16:00 +24°C° 1.4 mm 1 m/S 645 mmHg 86%
    17:00 +23°C° 1.4 mm 1 m/S 645 mmHg 87%
    18:00 +22°C° 1.1 mm 1 m/S 645 mmHg 89%
    19:00 +21°C° 1.1 mm 1 m/S 645 mmHg 91%
    20:00 +21°C° 1.1 mm 1 m/S 646 mmHg 94%
    21:00 +20°C° 0.8 mm 1 m/S 646 mmHg 94%
    22:00 +20°C° 0.8 mm 1 m/S 646 mmHg 94%
    23:00 +20°C° 0.8 mm 1 m/S 646 mmHg 94%

    20 Dezember, Donnerstag

    Zeit Temperatur Niederschläge Wind Luftdruck Luftfeuchtigkeit
    00:00 +20°C° 0.2 mm 1 m/S 646 mmHg 94%
    01:00 +19°C° 0.2 mm 1 m/S 645 mmHg 94%
    02:00 +19°C° 0.2 mm 1 m/S 645 mmHg 95%
    03:00 +19°C° 0.1 mm 1 m/S 645 mmHg 95%
    04:00 +19°C° 0.1 mm 1 m/S 645 mmHg 95%
    05:00 +19°C° 0.1 mm 1 m/S 645 mmHg 95%
    06:00 +20°C° 0.1 mm 1 m/S 646 mmHg 93%
    07:00 +19°C° 0.1 mm 2 m/S 646 mmHg 91%
    08:00 +20°C° 0.1 mm 2 m/S 647 mmHg 89%
    09:00 +21°C° 0.4 mm 2 m/S 647 mmHg 86%
    10:00 +21°C° 0.4 mm 2 m/S 647 mmHg 83%
    11:00 +22°C° 0.4 mm 3 m/S 647 mmHg 80%
    12:00 +22°C° 0.8 mm 3 m/S 646 mmHg 80%
    13:00 +24°C° 0.8 mm 3 m/S 645 mmHg 80%
    14:00 +24°C° 0.8 mm 3 m/S 645 mmHg 80%
    15:00 +24°C° 0.7 mm 2 m/S 645 mmHg 82%
    16:00 +24°C° 0.7 mm 2 m/S 645 mmHg 84%
    17:00 +23°C° 0.7 mm 2 m/S 644 mmHg 86%
    18:00 +21°C° 1.3 mm 2 m/S 645 mmHg 89%
    19:00 +21°C° 1.3 mm 1 m/S 645 mmHg 91%
    20:00 +20°C° 1.3 mm 1 m/S 646 mmHg 93%
    21:00 +20°C° 1.3 mm 1 m/S 646 mmHg 94%
    22:00 +19°C° 1.3 mm 2 m/S 646 mmHg 94%
    23:00 +19°C° 1.3 mm 2 m/S 646 mmHg 94%

    21 Dezember, Freitag

    Zeit Temperatur Niederschläge Wind Luftdruck Luftfeuchtigkeit
    00:00 +19°C° 0.8 mm 2 m/S 646 mmHg 95%
    01:00 +18°C° 0.8 mm 2 m/S 645 mmHg 96%
    02:00 +18°C° 0.8 mm 2 m/S 645 mmHg 96%
    03:00 +18°C° 0.1 mm 2 m/S 645 mmHg 96%
    04:00 +18°C° 0.1 mm 2 m/S 645 mmHg 96%
    05:00 +18°C° 0.1 mm 2 m/S 645 mmHg 96%
    06:00 +18°C° 0.1 mm 2 m/S 646 mmHg 95%
    07:00 +18°C° 0.1 mm 3 m/S 646 mmHg 94%
    08:00 +18°C° 0.1 mm 3 m/S 647 mmHg 92%
    09:00 +19°C° 0.2 mm 3 m/S 647 mmHg 91%
    10:00 +19°C° 0.2 mm 3 m/S 646 mmHg 90%
    11:00 +19°C° 0.2 mm 3 m/S 646 mmHg 89%
    12:00 +20°C° 0.4 mm 3 m/S 646 mmHg 85%
    13:00 +21°C° 0.4 mm 2 m/S 645 mmHg 82%
    14:00 +21°C° 0.4 mm 2 m/S 645 mmHg 79%
    15:00 +21°C° 0.4 mm 2 m/S 645 mmHg 82%
    16:00 +22°C° 0.4 mm 1 m/S 645 mmHg 84%
    17:00 +22°C° 0.4 mm 1 m/S 645 mmHg 86%
    18:00 +21°C° 0.6 mm 1 m/S 645 mmHg 88%
    19:00 +18°C° 0.6 mm 0 m/S 645 mmHg 91%
    20:00 +18°C° 0.6 mm 0 m/S 645 mmHg 93%
    21:00 +18°C° 0.8 mm 0 m/S 646 mmHg 93%
    22:00 +20°C° 0.8 mm 1 m/S 646 mmHg 94%
    23:00 +20°C° 0.8 mm 1 m/S 646 mmHg 94%

    22 Dezember, Samstag

    Zeit Temperatur Niederschläge Wind Luftdruck Luftfeuchtigkeit
    00:00 +19°C° 1 mm 1 m/S 645 mmHg 95%
    01:00 +19°C° 1 mm 1 m/S 645 mmHg 95%
    02:00 +19°C° 1 mm 1 m/S 644 mmHg 96%
    03:00 +19°C° 0.4 mm 1 m/S 645 mmHg 96%
    04:00 +19°C° 0.4 mm 1 m/S 645 mmHg 97%
    05:00 +19°C° 0.4 mm 1 m/S 645 mmHg 97%
    06:00 +19°C° 0.1 mm 1 m/S 646 mmHg 95%
    07:00 +19°C° 0.1 mm 2 m/S 646 mmHg 93%
    08:00 +19°C° 0.1 mm 2 m/S 647 mmHg 91%
    09:00 +20°C° 0.4 mm 2 m/S 647 mmHg 88%
    10:00 +21°C° 0.4 mm 2 m/S 647 mmHg 85%
    11:00 +23°C° 0.4 mm 2 m/S 647 mmHg 82%
    12:00 +22°C° 0.7 mm 3 m/S 646 mmHg 80%
    13:00 +24°C° 0.7 mm 3 m/S 646 mmHg 79%
    14:00 +24°C° 0.7 mm 3 m/S 645 mmHg 77%
    15:00 +24°C° 0.7 mm 2 m/S 645 mmHg 80%
    16:00 +23°C° 0.7 mm 2 m/S 645 mmHg 84%
    17:00 +23°C° 0.7 mm 1 m/S 645 mmHg 87%
    18:00 +22°C° 0.7 mm 1 m/S 645 mmHg 89%
    19:00 +21°C° 0.7 mm 1 m/S 645 mmHg 91%
    20:00 +18°C° 0.7 mm 0 m/S 645 mmHg 93%
    21:00 +18°C° 0.1 mm 0 m/S 645 mmHg 93%
    22:00 +17°C° 0.1 mm 0 m/S 646 mmHg 93%
    23:00 +17°C° 0.1 mm 0 m/S 646 mmHg 93%
    Mehr zeigen